Location: Krasnoyarskiy
(51.1133°N, 71.6497°E)
Time: 06:34:28
(UTC+00:00)

FLOCK 4Y 15 - Visible Passes

Search period start: 24 September 2023 00:00
Search period end: 04 October 2023 00:00
Orbit: 495 x 515 km, 97.5° (Epoch: 23 September)

Date Brightness Start Highest point End Pass type
(mag) Time Alt. Az. Time Alt. Az. Time Alt. Az.
24 Sep ? 14:57:35 16° NE 14:57:35 16° NE 14:59:13 10° NNE visible
24 Sep ? 16:32:23 23° NNW 16:32:23 23° NNW 16:33:57 10° NNW visible
25 Sep ? 14:39:32 11° NE 14:39:32 11° NE 14:40:23 10° NE visible
25 Sep ? 16:14:20 25° NNW 16:14:20 25° NNW 16:16:01 10° NNW visible
26 Sep ? 15:56:16 25° N 15:56:16 25° N 15:57:58 10° N visible
27 Sep ? 15:38:10 23° NNE 15:38:10 23° NNE 15:39:47 10° N visible
27 Sep ? 17:12:58 11° NW 17:12:58 11° NW 17:13:07 10° NW visible
28 Sep ? 15:20:04 19° NNE 15:20:04 19° NNE 15:21:30 10° N visible
28 Sep ? 16:54:52 14° NW 16:54:52 14° NW 16:55:28 10° NNW visible
29 Sep ? 15:01:56 15° NNE 15:01:56 15° NNE 15:03:02 10° NNE visible
29 Sep ? 16:36:44 16° NNW 16:36:44 16° NNW 16:37:36 10° NNW visible
30 Sep ? 14:43:48 11° NE 14:43:48 11° NE 14:44:13 10° NNE visible
30 Sep ? 16:18:36 18° NNW 16:18:36 18° NNW 16:19:36 10° NNW visible
01 Oct ? 16:00:25 18° N 16:00:25 18° N 16:01:28 10° N visible
02 Oct ? 15:42:14 17° N 15:42:14 17° N 15:43:13 10° N visible
03 Oct ? 15:24:01 15° NNE 15:24:01 15° NNE 15:24:51 10° N visible
